Notices

What's New in latest Release from April 7th, 2021:

- Updated Glossary, including Speed of Maximum Gust, and Total Hourly Precipitation

- Updated national and regional climate services offices contacts and prices information

- Addition of station inventory lists for 1981-2010, 1971-2000, and 1961-1990 Normals.

If you haven't already, please take our survey and provide feedback about our website: https://eccc.sondage-survey.ca/f/LanguageSelection.aspx?s=442ca660-fcf1-47c0-95a9-59707d6fd709

Hourly Data Report for October 19, 2006

TORONTO CITY
ONTARIO

43°40'00.000" N
79°24'00.000" W
112.50 m
6158355
71508
XTO

Download Data

Hourly Data (October 2006)
Hourly Data Report for October 19, 2006
TIME
LST
Temp Definition
°C
Dew Point Definition
°C
Rel Hum Definition
%
Precip. Amount Definition
mm

Wind Dir Definition
10's deg

Wind Spd Definition
km/h
Visibility Definition
km
Stn Press Definition
kPa
Hmdx Definition


Wind Chill Definition


Weather Definition


00:00 13.3 12.3 94   LegendMM LegendMM   99.53     LegendNANA
01:00 13.2 12.3 94   LegendMM LegendMM   99.49     LegendNANA
02:00 13.1 12.2 94   LegendMM LegendMM   99.43     LegendNANA
03:00 13.0 12.3 96   LegendMM LegendMM   99.39     LegendNANA
04:00 13.0 12.4 96   LegendMM LegendMM   99.32     LegendNANA
05:00 12.9 12.5 97   LegendMM LegendMM   99.27     LegendNANA
06:00 13.0 12.7 98   LegendMM LegendMM   99.19     LegendNANA
07:00 13.2 13.0 99   LegendMM LegendMM   99.16     LegendNANA
08:00 13.5 13.3 99   LegendMM LegendMM   99.17     LegendNANA
09:00 14.3 14.0 98   LegendMM LegendMM   99.18     LegendNANA
10:00 14.2 13.8 97   LegendMM LegendMM   99.17     LegendNANA
11:00 12.5 11.4 93   LegendMM LegendMM   99.24     LegendNANA
12:00 12.4 10.8 90   LegendMM LegendMM   99.24     LegendNANA
13:00 11.8 10.0 89   LegendMM LegendMM   99.20     LegendNANA
14:00 11.7 9.4 86   LegendMM LegendMM   99.16     LegendNANA
15:00 11.8 8.8 82   LegendMM LegendMM   99.20     LegendNANA
16:00 11.5 8.4 81   LegendMM LegendMM   99.20     LegendNANA
17:00 10.7 7.7 82   LegendMM LegendMM   99.34     LegendNANA
18:00 10.2 7.2 82   LegendMM LegendMM   99.32     LegendNANA
19:00 10.1 6.9 80   LegendMM LegendMM   99.40     LegendNANA
20:00 9.9 6.1 77   LegendMM LegendMM   99.39     LegendNANA
21:00 8.8 5.4 79   LegendMM LegendMM   99.44     LegendNANA
22:00 7.9 4.6 80   LegendMM LegendMM   99.43     LegendNANA
23:00 7.3 3.9 79   LegendMM LegendMM   99.38     LegendNANA

Notes on Data Quality.

Legend

  • E = Estimated
  • M = Missing
  • NA = Not Available*
  • [empty] = Indicates an unobserved value
Date modified: